Weather History for Alpena, MI

Change the Weather History Date:

Sunday, May 25, 2014

  Actual Average Record
Temperature  
Mean Temperature 64 °F 55 °F  
Max Temperature 84 °F 68 °F 87 °F (1965)
Min Temperature 44 °F 43 °F 26 °F (1934)
Degree Days  
Heating Degree Days 1 10  
Month to date heating degree days 360 343  
Since 1 July heating degree days 9029 7902  
Cooling Degree Days 0 1  
Month to date cooling degree days 0 2  
Year to date cooling degree days 0 4  
Growing Degree Days 13 (Base 50)    
Moisture  
Dew Point 45 °F    
Average Humidity 60    
Maximum Humidity 93    
Minimum Humidity 26    
Precipitation  
Precipitation 0.00 in 0.09 in 1.57 in (1955)
Month to date precipitation 2.31 2.11  
Year to date precipitation 11.50 9.34  
Sea Level Pressure  
Sea Level Pressure 30.08 in    
Wind  
Wind Speed 6 mph (SSE)    
Max Wind Speed 17 mph    
Max Gust Speed 20 mph    
Visibility 10 miles    
Events      
T = Trace of Precipitation, MM = Missing Value Source: NWS Daily Summary

Daily Weather History Graph

Daily Weather History Graph

Search for Another Location

Airport:

Trip Planner

Search our weather history database for the weather conditions in past years. The results will help you decide how hot, cold, wet, or windy it might be!

Date:

Astronomy

May. 25, 2014 Rise Set
Actual Time 5:55 AM EDT 9:07 PM EDT
Civil Twilight 5:19 AM EDT 9:43 PM EDT
Nautical Twilight 4:33 AM EDT 10:29 PM EDT
Astronomical Twilight 3:37 AM EDT 11:26 PM EDT
Moon 4:08 AM EDT (5/25) 5:59 PM EDT (5/25)
Length of Visible Light 16h 23m
Length of Day
15h 12m
Waning Crescent, 10% of the Moon is Illuminated
May 25
Waning Crescent
May 28
New
Jun 5
First Quarter
Jun 13
Full
Jun 19
Last Quarter

Hourly Weather History & Observations

Time (EDT) Temp. Dew Point Humidity Pressure Visibility Wind Dir Wind Speed Gust Speed Precip Events Conditions
12:54 AM 48.0 °F 42.1 °F 80% 30.13 in 10.0 mi Calm Calm - N/A   Clear
1:54 AM 48.9 °F 42.1 °F 77% 30.13 in 10.0 mi Calm Calm - N/A   Clear
2:54 AM 46.9 °F 42.1 °F 83% 30.12 in 10.0 mi Calm Calm - N/A   Clear
3:54 AM 44.1 °F 41.0 °F 89% 30.12 in 10.0 mi Calm Calm - N/A   Clear
4:54 AM 46.9 °F 43.0 °F 86% 30.12 in 10.0 mi West 3.5 mph - N/A   Clear
5:54 AM 44.1 °F 42.1 °F 93% 30.13 in 10.0 mi Calm Calm - N/A   Clear
6:54 AM 48.0 °F 46.0 °F 93% 30.15 in 10.0 mi Calm Calm - N/A   Clear
7:54 AM 57.9 °F 46.0 °F 65% 30.14 in 10.0 mi SW 3.5 mph - N/A   Clear
8:54 AM 66.9 °F 45.0 °F 45% 30.13 in 10.0 mi SW 4.6 mph - N/A   Clear
9:54 AM 71.1 °F 43.0 °F 36% 30.12 in 10.0 mi WSW 9.2 mph - N/A   Clear
10:54 AM 75.2 °F 44.6 °F 34% 30.10 in 10.0 mi West 5.8 mph - N/A   Clear
11:54 AM 78.1 °F 44.1 °F 30% 30.09 in 10.0 mi South 6.9 mph - N/A   Clear
12:54 PM 81.0 °F 44.1 °F 27% 30.08 in 10.0 mi SSW 10.4 mph - N/A   Clear
1:54 PM 82.0 °F 44.1 °F 26% 30.06 in 10.0 mi SW 9.2 mph - N/A   Clear
2:54 PM 81.0 °F 48.0 °F 31% 30.05 in 10.0 mi East 15.0 mph - N/A   Partly Cloudy
3:13 PM 80.1 °F 46.9 °F 31% 30.05 in 10.0 mi East 10.4 mph - N/A   Partly Cloudy
3:54 PM 80.1 °F 46.0 °F 30% 30.04 in 10.0 mi ESE 12.7 mph - N/A   Partly Cloudy
4:54 PM 79.0 °F 45.0 °F 30% 30.02 in 10.0 mi East 12.7 mph - N/A   Clear
5:54 PM 79.0 °F 46.0 °F 31% 30.01 in 10.0 mi East 11.5 mph - N/A   Clear
6:54 PM 79.0 °F 46.9 °F 32% 30.00 in 10.0 mi NE 12.7 mph - N/A   Clear
8:54 PM 66.9 °F 46.9 °F 49% 30.00 in 10.0 mi NE 3.5 mph - N/A   Clear
9:54 PM 62.1 °F 46.9 °F 58% 30.00 in 10.0 mi ENE 3.5 mph - N/A   Clear
10:54 PM 57.9 °F 48.9 °F 72% 30.01 in 10.0 mi SSE 3.5 mph - N/A   Clear
11:54 PM 55.9 °F 48.0 °F 75% 30.01 in 10.0 mi Calm Calm - N/A   Clear